Lincoln, IL

7:32 AM CST on February 24, 2017 (GMT -0600)
Lincoln

Weather History for KAAA - December, 2013

Change the Weather History Date:

Tuesday, December 3, 2013

  Actual Average (KSPI) Record (KSPI)
Temperature  
Mean Temperature 46 °F -  
Max Temperature 52 °F 41 °F 74 °F (1970)
Min Temperature 39 °F 25 °F -2 °F (1929)
Degree Days  
Heating Degree Days 20    
Moisture  
Dew Point 45 °F    
Average Humidity 96    
Maximum Humidity 100    
Minimum Humidity 93    
Precipitation  
Precipitation 0.00 in - - ()
Sea Level Pressure  
Sea Level Pressure 29.68 in    
Wind  
Wind Speed 7 mph (SSE)    
Max Wind Speed 15 mph    
Max Gust Speed 16 mph    
Visibility 2 miles    
Events Fog    
Averages and records for this station are not official NWS values.
T = Trace of Precipitation, MM = Missing Value Source: NWS Daily Summary

Daily Weather History Graph

Daily Weather History Graph

Search for Another Location

Airport or City:

Trip Planner

Search our weather history database for the weather conditions in past years. The results will help you decide how hot, cold, wet, or windy it might be!

Date:

Astronomy

Dec. 03, 2013 Rise Set
Actual Time 7:02 AM CST 4:31 PM CST
Civil Twilight 6:32 AM CST 5:01 PM CST
Nautical Twilight 5:58 AM CST 5:35 PM CST
Astronomical Twilight 5:25 AM CST 6:08 PM CST
Moon 7:31 AM CST (12/3) 5:35 PM CST (12/3)
Length of Visible Light 10h 29m
Length of Day
9h 29m
New Moon, 1% of the Moon is Illuminated
Dec 3
New Moon
Dec 9
First Quarter
Dec 17
Full
Dec 25
Last Quarter
Jan 1
New

Hourly Weather History & Observations

Time (CST) Temp. Windchill Dew Point Humidity Pressure Visibility Wind Dir Wind Speed Gust Speed Precip Events Conditions
12:15 AM 39.6 °F 35.4 °F 38.7 °F 97% 29.69 in 4.0 mi SSE 5.8 mph - N/A   Clear
12:35 AM 40.1 °F 35.3 °F 39.0 °F 96% 29.68 in 4.0 mi South 6.9 mph - N/A   Clear
12:55 AM 40.5 °F 36.5 °F 39.2 °F 95% 29.68 in 4.0 mi South 5.8 mph - N/A   Clear
1:15 AM 40.8 °F 36.9 °F 39.6 °F 95% 29.68 in 3.0 mi South 5.8 mph - N/A   Clear
1:35 AM 41.5 °F 38.6 °F 40.3 °F 95% 29.68 in 3.0 mi South 4.6 mph - N/A   Scattered Clouds
1:55 AM 42.1 °F 36.6 °F 41.0 °F 96% 29.69 in 3.0 mi South 9.2 mph - N/A   Overcast
2:15 AM 42.3 °F 36.3 °F 41.0 °F 95% 29.69 in 3.0 mi South 10.4 mph - N/A   Scattered Clouds
2:35 AM 42.3 °F 36.8 °F 41.0 °F 95% 29.68 in 3.0 mi South 9.2 mph - N/A   Scattered Clouds
2:55 AM 42.1 °F 39.2 °F 40.8 °F 95% 29.67 in 2.5 mi South 4.6 mph - N/A   Clear
3:15 AM 41.5 °F 38.6 °F 40.5 °F 96% 29.66 in 2.0 mi South 4.6 mph - N/A   Clear
3:35 AM 41.0 °F 38.0 °F 39.9 °F 96% 29.66 in 1.2 mi South 4.6 mph - N/A   Scattered Clouds
3:55 AM 41.2 °F 38.2 °F 40.3 °F 97% 29.66 in 1.0 mi SSE 4.6 mph - N/A   Mostly Cloudy
4:15 AM 39.6 °F 35.4 °F 38.8 °F 97% 29.66 in 0.2 mi South 5.8 mph - N/A Fog Fog
4:35 AM 42.3 °F 36.8 °F 41.7 °F 98% 29.66 in 0.2 mi South 9.2 mph - N/A Fog Fog
4:55 AM 43.0 °F 38.2 °F 42.3 °F 97% 29.66 in 0.2 mi South 8.1 mph - N/A   Heavy Drizzle
5:15 AM 43.0 °F 37.7 °F 42.3 °F 97% 29.67 in 0.2 mi South 9.2 mph - N/A   Heavy Drizzle
5:35 AM 43.2 °F 38.4 °F 42.4 °F 97% 29.67 in 0.2 mi South 8.1 mph - N/A   Heavy Drizzle
5:55 AM 43.3 °F 39.2 °F 42.8 °F 98% 29.68 in 0.2 mi South 6.9 mph - N/A   Heavy Drizzle
6:15 AM 43.2 °F 38.4 °F 42.4 °F 97% 29.69 in 0.2 mi South 8.1 mph - N/A   Drizzle
6:35 AM 43.2 °F 38.4 °F 42.4 °F 97% 29.69 in 0.2 mi South 8.1 mph - N/A   Heavy Drizzle
6:55 AM 43.5 °F 38.9 °F 42.8 °F 97% 29.70 in 0.2 mi South 8.1 mph - N/A   Drizzle
7:15 AM 43.7 °F 39.7 °F 42.8 °F 97% 29.70 in 0.2 mi South 6.9 mph - N/A   Heavy Drizzle
7:35 AM 43.9 °F 40.5 °F 43.2 °F 97% 29.70 in 0.2 mi South 5.8 mph - N/A   Heavy Drizzle
7:55 AM 44.2 °F 40.3 °F 43.5 °F 97% 29.69 in 0.2 mi SSE 6.9 mph - N/A   Drizzle
8:15 AM 44.8 °F 41.6 °F 44.1 °F 97% 29.70 in 0.2 mi South 5.8 mph - N/A   Drizzle
8:35 AM 45.1 °F 41.4 °F 44.6 °F 98% 29.70 in 0.2 mi South 6.9 mph - N/A   Drizzle
8:55 AM 45.7 °F 41.0 °F 45.0 °F 97% 29.69 in 0.2 mi SSE 9.2 mph - N/A   Drizzle
9:15 AM 46.4 °F 41.9 °F 45.5 °F 97% 29.69 in 0.2 mi South 9.2 mph - N/A   Drizzle
9:35 AM 46.6 °F - 45.9 °F 97% 29.69 in 0.2 mi South 10.4 mph - N/A   Drizzle
9:55 AM 47.3 °F - 46.4 °F 97% 29.70 in 0.2 mi South 12.7 mph 16.1 mph N/A Fog Fog
10:15 AM 47.3 °F - 46.6 °F 97% 29.70 in 0.2 mi South 9.2 mph - N/A Fog Fog
10:35 AM 47.3 °F - 46.6 °F 97% 29.70 in 0.2 mi South 10.4 mph - N/A Fog Fog
10:55 AM 47.7 °F - 46.9 °F 97% 29.69 in 0.5 mi South 10.4 mph - N/A Fog Fog
11:15 AM 48.2 °F - 47.5 °F 97% 29.69 in 1.0 mi South 11.5 mph - N/A   Overcast
11:35 AM 48.6 °F - 47.8 °F 97% 29.69 in 1.0 mi South 12.7 mph - N/A   Overcast
11:55 AM 48.7 °F - 48.2 °F 98% 29.68 in 1.5 mi South 15.0 mph - N/A   Overcast
12:15 PM 49.1 °F - 48.4 °F 97% 29.68 in 1.8 mi South 11.5 mph - N/A   Overcast
12:35 PM 49.1 °F - 48.4 °F 97% 29.68 in 2.0 mi South 10.4 mph - N/A   Overcast
12:55 PM 49.3 °F - 48.6 °F 97% 29.69 in 1.8 mi South 9.2 mph - N/A   Overcast
1:15 PM 49.6 °F - 49.1 °F 98% 29.68 in 1.2 mi South 8.1 mph - N/A   Overcast
1:35 PM 50.0 °F - 49.3 °F 97% 29.68 in 1.5 mi South 6.9 mph - N/A   Overcast
1:55 PM 50.5 °F - 49.8 °F 97% 29.68 in 1.8 mi SSW 4.6 mph - N/A   Overcast
2:15 PM 50.9 °F - 50.0 °F 97% 29.67 in 2.0 mi South 9.2 mph - N/A   Overcast
2:35 PM 50.9 °F - 50.2 °F 97% 29.66 in 1.8 mi SSE 5.8 mph - N/A   Overcast
2:55 PM 50.9 °F - 50.0 °F 97% 29.65 in 2.0 mi South 8.1 mph - N/A   Overcast
3:15 PM 51.3 °F - 50.2 °F 96% 29.64 in 1.8 mi SSE 10.4 mph - N/A   Overcast
3:35 PM 51.8 °F - 50.5 °F 95% 29.63 in 1.8 mi SSE 12.7 mph - N/A   Overcast
3:55 PM 52.0 °F - 50.9 °F 96% 29.63 in 2.0 mi SSE 9.2 mph - N/A   Overcast
4:15 PM 52.3 °F - 50.9 °F 95% 29.64 in 2.5 mi SSE 8.1 mph - N/A   Overcast
4:35 PM 52.5 °F - 50.9 °F 94% 29.64 in 4.0 mi South 8.1 mph - N/A   Overcast
4:55 PM 52.2 °F - 50.5 °F 94% 29.65 in 4.0 mi SSE 8.1 mph - N/A   Overcast
5:15 PM 52.0 °F - 50.7 °F 95% 29.66 in 4.0 mi SE 5.8 mph - N/A   Overcast
5:35 PM 52.0 °F - 50.4 °F 94% 29.66 in 4.0 mi SE 4.6 mph - N/A   Overcast
5:55 PM 50.9 °F - 49.1 °F 94% 29.66 in 4.0 mi SSE 8.1 mph - N/A   Scattered Clouds
6:15 PM 49.1 °F - 47.5 °F 94% 29.67 in 3.0 mi SSE 5.8 mph - N/A   Clear
6:35 PM 48.7 °F - 47.1 °F 94% 29.68 in 3.0 mi SE 4.6 mph - N/A   Clear
6:55 PM 47.8 °F - 46.2 °F 94% 29.69 in 3.0 mi SE 3.5 mph - N/A   Clear
7:15 PM 47.5 °F - 46.4 °F 96% 29.69 in 3.0 mi SSE 5.8 mph - N/A   Clear
7:35 PM 47.3 °F - 45.7 °F 94% 29.70 in 3.0 mi SSE 5.8 mph - N/A   Clear
7:55 PM 47.1 °F - 45.9 °F 95% 29.70 in 3.0 mi SSE 5.8 mph - N/A   Scattered Clouds
8:15 PM 48.2 °F - 46.9 °F 95% 29.70 in 3.0 mi SE 6.9 mph - N/A   Mostly Cloudy
8:35 PM 47.8 °F - 46.4 °F 95% 29.70 in 3.0 mi SSE 3.5 mph - N/A   Clear
8:55 PM 46.8 °F - 45.5 °F 95% 29.70 in 2.5 mi SSE 4.6 mph - N/A   Clear
9:15 PM 46.6 °F - 45.3 °F 95% 29.71 in 2.5 mi SSE 3.5 mph - N/A   Mostly Cloudy
9:35 PM 47.5 °F - 46.4 °F 96% 29.71 in 3.0 mi SSE 3.5 mph - N/A   Overcast
9:55 PM 47.8 °F - 46.8 °F 96% 29.71 in 3.0 mi SSE 3.5 mph - N/A   Overcast
10:14 PM 48.2 °F - 46.4 °F 93% 29.71 in 3.0 mi SSE 4.6 mph - N/A   Overcast
10:15 PM 48.2 °F - 47.1 °F 96% 29.71 in 3.0 mi SSE 4.6 mph - N/A   Overcast
10:33 PM 48.2 °F - 46.4 °F 93% 29.70 in 3.0 mi SSE 3.5 mph - N/A   Overcast
10:35 PM 47.8 °F - 46.6 °F 95% 29.70 in 3.0 mi SSE 3.5 mph - N/A   Overcast
10:53 PM 48.2 °F - 46.4 °F 93% 29.69 in 3.0 mi SSE 4.6 mph - N/A   Overcast
10:55 PM 47.8 °F - 46.6 °F 95% 29.69 in 3.0 mi SSE 3.5 mph - N/A   Mostly Cloudy
11:14 PM 46.4 °F 43.5 °F 44.6 °F 93% 29.69 in 3.0 mi SE 5.8 mph - N/A   Scattered Clouds
11:15 PM 46.6 °F - 45.5 °F 96% 29.69 in 3.0 mi SE 5.8 mph - N/A   Scattered Clouds
11:34 PM 44.6 °F 42.2 °F 44.6 °F 100% 29.70 in 2.0 mi SE 4.6 mph - N/A   Clear
11:35 PM 45.3 °F 44.0 °F 44.1 °F 95% 29.70 in 2.0 mi SE 3.5 mph - N/A   Clear
11:53 PM 44.6 °F - 42.8 °F 93% 29.70 in 1.5 mi Calm Calm - N/A   Mist
11:55 PM 43.9 °F - 42.8 °F 96% 29.70 in 1.5 mi Calm Calm - N/A   Mist